User: anonymous   Login
Location: Unspecified
(0.0000°N, 0.0000°E)
Time: 02:35:35
(UTC+00:00)
Language:

Galileo 5 - Orbit

View from above orbital plane
View from above orbital plane
View from above satellite
View from above satellite

Ground track
Ground track

The orbit data is extracted from the following two-line orbital elements,

1 40128U 14050A   18322.12518948 -.00000094  00000-0  00000+0 0  9992
2 40128  50.5239  24.4325 1656728  80.7966 297.5185  1.85519897 28901
Epoch (UTC): 18 November 2018 03:00:16
Eccentricity: 0.1656728
inclination: 50.5239°
perigee height: 16964 km
apogee height: 26234 km
right ascension of ascending node: 24.4325°
argument of perigee: 80.7966°
revolutions per day: 1.85519897
mean anomaly at epoch: 297.5185°
orbit number at epoch: 2890

The dashed part of the orbit path shows where the satellite is in the earth's shadow,  

DLR